Theta_e
299 299 298 298 298 298 298 298 297 296 296 295 295 294 294 294 294 293 293 293 293 293 293 292 293 293 293 293 293 295 295 294
298 297 297 296 297 297 297 297 296 296 296 295 293 292 293 293 293 292 291 291 292 292 292 292 293 292 291 292 291 291 293 293
296 296 296 296 295 295 295 295 295 295 296 294 294 293 292 292 292 291 290 289 289 289 289 289 290 290 290 290 289 289 291 292
295 295 295 295 294 294 294 294 294 294 294 293 292 292 291 290 289 289 288 288 288 288 288 288 288 289 288 288 287 287 285 290
295 294 294 294 293 293 293 293 293 292 292 291 289 289 287 287 288 287 287 286 286 287 287 287 288 288 287 287 286 286 286 285
294 295 295 294 292 292 292 292 291 290 289 289 288 286 286 286 286 285 285 285 285 285 286 286 286 287 287 286 286 286 285 284
295 296 295 293 293 292 291 290 288 288 287 286 285 285 285 284 284 284 284 284 284 284 285 285 285 285 285 285 286 286 285 283
294 293 292 292 291 291 289 288 287 285 284 284 284 284 284 283 283 283 283 283 283 283 283 283 283 284 284 285 285 285 284 283
295 294 293 291 291 291 290 288 286 283 283 283 283 284 284 284 283 283 283 283 282 283 282 282 283 283 283 283 284 284 284 284
294 293 292 292 291 291 289 288 285 284 284 284 283 284 283 283 283 284 283 283 282 282 282 282 282 282 282 283 282 282 284 284
294 293 292 292 292 291 289 288 286 285 285 285 284 283 283 283 284 283 282 282 282 281 281 281 281 281 282 282 281 282 283 283
293 292 291 291 287 289 288 287 285 285 286 285 284 283 283 283 283 283 283 283 282 281 280 280 280 280 281 281 281 280 281 281
287 289 288 285 288 288 287 287 285 284 285 286 285 283 282 282 282 282 282 282 282 281 280 280 279 279 279 279 279 279 278 279
288 287 285 285 287 285 285 284 285 285 285 284 284 282 279 279 279 281 281 281 280 280 279 278 278 278 278 278 278 278 278 277
290 287 285 284 285 285 284 284 285 285 285 285 282 282 281 280 280 281 281 282 280 279 279 279 278 279 279 279 278 278 278 278
290 289 287 284 284 286 286 285 285 285 285 285 285 284 283 282 280 281 281 282 281 280 280 280 281 282 282 280 280 278 278 278
290 288 287 285 285 284 286 285 285 285 285 284 285 284 283 281 280 280 280 280 281 281 281 281 281 282 281 280 280 280 279 278
289 288 287 287 286 285 284 284 285 286 285 284 283 282 281 280 280 280 280 280 281 280 280 281 281 281 280 280 279 280 279 279
289 288 288 288 288 285 285 285 285 285 285 283 283 282 281 280 280 280 280 280 280 280 280 280 281 280 280 279 279 280 280 279
Wind_Speed
11 10 9 9 9 9 9 7 9 9 7 6 6 6 7 7 7 8 11 9 10 9 8 9 8 8 9 10 11 10 9 10
11 10 10 10 8 9 8 8 7 5 4 4 4 5 5 7 7 10 10 10 11 10 8 9 9 9 11 12 10 12 9 12
13 12 9 6 8 7 7 7 6 4 4 4 3 3 5 5 6 8 9 10 11 10 10 9 11 8 11 12 13 10 8 10
15 12 9 8 8 7 7 7 7 6 6 6 5 5 3 3 5 5 8 10 11 10 11 9 9 8 8 10 11 13 9 8
13 12 11 9 8 7 7 7 7 6 4 4 4 4 4 3 4 5 6 10 10 10 10 9 9 7 10 9 8 9 9 10
16 14 12 10 9 8 7 8 8 7 6 5 4 7 5 3 4 6 8 8 9 10 10 9 9 7 8 9 9 11 8 8
15 13 12 11 9 8 8 9 9 6 6 6 7 8 6 5 6 5 6 5 6 10 9 9 9 8 9 8 8 11 9 8
17 17 15 13 11 9 7 7 7 7 8 7 8 8 8 7 6 6 5 5 6 9 9 9 8 9 9 8 9 9 10 9
17 15 13 13 12 10 9 8 8 8 8 8 7 7 5 5 7 5 5 6 6 8 8 8 10 10 9 9 7 7 10 9
16 14 14 14 13 12 11 11 10 9 9 8 7 6 7 7 7 6 6 7 7 9 9 10 10 10 10 9 8 9 9 9
15 15 14 13 13 11 11 10 11 10 10 8 7 7 7 7 7 8 9 8 9 9 9 10 10 10 10 10 9 10 11 10
12 13 13 12 9 12 11 10 9 10 9 9 8 7 7 7 7 8 8 9 9 9 9 9 9 10 10 10 11 12 12 12
9 11 13 11 14 12 12 10 11 8 7 10 9 7 6 8 8 9 8 8 8 8 8 9 9 10 10 11 11 11 12 13
10 12 12 13 13 11 11 10 11 11 11 9 9 8 7 8 8 8 8 7 6 7 7 9 9 9 10 10 11 11 11 11
14 12 14 14 12 13 12 10 11 12 11 10 9 9 8 8 7 7 7 7 7 6 6 5 5 8 9 10 10 10 11 11
15 17 16 15 14 14 13 13 13 12 11 10 10 10 8 7 7 7 6 6 7 7 7 6 7 8 7 8 10 10 10 11
14 15 17 19 19 16 15 14 14 12 11 10 10 10 10 8 8 8 7 8 7 7 8 9 8 8 13 12 9 10 11 12
14 16 17 17 18 17 16 13 13 14 13 12 12 11 10 9 9 8 8 7 8 8 8 8 8 9 11 12 10 8 10 11
11 12 14 16 17 16 14 14 13 14 14 13 12 11 10 10 9 9 8 7 7 7 7 7 7 8 10 10 9 9 9 10
Wind_Direction
141 132 122 118 115 113 111 110 113 106 103 97 87 77 67 57 49 42 34 32 25 25 26 21 14 15 11 3 352 350 339 342
146 140 133 127 119 118 124 129 128 128 110 101 84 73 64 57 48 37 35 29 25 26 20 18 16 22 15 6 358 352 353 354
160 153 147 134 123 114 108 108 122 119 127 116 104 104 79 70 57 46 35 31 29 29 20 15 17 13 18 13 10 355 351 1
164 158 145 137 129 121 114 107 104 98 110 123 119 122 111 66 46 40 32 31 30 29 30 18 16 15 15 16 12 8 353 357
162 155 158 152 134 119 111 102 97 81 70 87 92 75 78 59 50 47 43 34 28 28 31 26 22 15 19 16 16 11 3 358
168 170 164 153 145 139 129 115 94 80 76 94 96 92 92 93 81 69 52 41 36 30 26 26 24 23 18 19 25 25 22 4
174 174 161 158 156 149 138 128 104 103 99 85 98 107 119 98 75 63 55 39 38 34 28 29 28 23 19 16 20 30 29 17
178 178 175 165 161 151 140 122 130 117 111 100 95 101 100 95 91 69 62 49 40 35 31 29 31 26 26 19 26 29 26 19
188 186 171 163 168 161 147 153 141 126 114 99 99 102 99 91 77 84 72 59 47 43 42 38 37 32 27 27 30 27 23 21
189 177 173 172 171 170 162 165 143 139 125 119 109 104 97 94 94 86 74 65 58 50 46 44 40 36 31 33 34 28 28 24
183 180 177 177 171 166 169 161 150 150 141 128 108 102 97 101 95 85 77 69 58 53 49 48 47 43 39 39 39 35 37 29
182 181 179 171 152 165 165 158 156 153 146 129 121 112 107 100 90 82 75 68 59 58 56 56 52 48 43 50 49 39 42 38
171 171 169 158 169 168 168 164 161 151 139 143 135 118 101 94 87 78 74 76 73 68 69 67 61 54 49 45 49 43 39 35
177 173 174 167 172 168 164 163 163 159 154 147 140 124 105 99 98 95 86 87 85 81 75 68 63 60 57 50 47 44 40 32
191 183 181 176 173 168 165 162 161 156 156 153 145 141 128 120 112 108 102 98 95 89 78 76 69 64 58 53 49 43 43 35
197 196 186 176 171 173 173 169 163 158 157 156 158 151 150 133 122 122 122 112 103 100 86 68 73 66 56 55 54 46 45 46
201 192 185 180 177 175 174 168 167 162 161 154 150 151 147 139 130 126 122 110 104 96 86 82 70 65 59 56 52 58 50 44
189 188 185 182 174 169 167 160 152 164 162 156 154 152 148 143 141 137 125 115 107 95 86 82 77 73 62 62 55 61 56 53
176 174 174 173 166 162 149 150 154 159 160 161 159 159 149 149 149 140 132 123 109 97 89 83 79 70 64 65 61 66 65 59